Location: Huntsville
(41.2590°N, 111.7678°W)
Time: 12:54:49
(UTC+00:00)

Vanguard 1 Rocket - All Passes

Search period start: 22 June 2021 00:00
Search period end: 02 July 2021 00:00
Orbit: 651 x 4225 km, 34.3° (Epoch: 21 June)

Date Brightness Start Highest point End Pass type
(mag) Time Alt. Az. Time Alt. Az. Time Alt. Az.
22 Jun - 02:16:35 10° SSE 02:19:19 13° SE 02:22:37 10° ESE daylight
22 Jun - 04:35:54 10° SW 04:42:55 48° SSE 04:56:14 10° E visible
22 Jun - 06:59:22 10° W 07:09:35 65° S 07:29:38 10° ESE visible
22 Jun - 09:24:35 10° W 09:38:37 50° SSW 10:01:38 10° SE visible
22 Jun - 11:53:33 10° W 12:08:22 26° SW 12:26:50 10° S daylight
23 Jun - 03:26:23 10° SSW 03:32:01 32° SE 03:41:22 10° E visible
23 Jun - 05:48:52 10° WSW 05:57:15 62° S 06:13:57 10° E visible
23 Jun - 08:13:14 10° W 08:25:10 57° SSW 08:47:00 10° SE visible
23 Jun - 10:39:57 10° W 10:54:41 35° SSW 11:15:40 10° SSE visible
23 Jun - 13:19:06 10° WSW 13:23:57 11° SW 13:29:02 10° SW daylight
24 Jun - 02:17:55 10° S 02:21:37 17° SE 02:26:34 10° E daylight
24 Jun - 04:38:44 10° WSW 04:45:35 52° SSE 04:58:43 10° E visible
24 Jun - 07:02:23 10° W 07:12:18 62° S 07:31:41 10° ESE visible
24 Jun - 09:27:44 10° W 09:41:04 43° SSW 10:02:44 10° SE visible
24 Jun - 11:58:08 10° W 12:10:32 20° SW 12:25:38 10° S daylight
25 Jun - 03:28:59 10° SW 03:34:33 37° SSE 03:44:06 10° E visible
25 Jun - 05:51:52 10° WSW 06:00:01 61° S 06:16:14 10° ESE visible
25 Jun - 08:16:19 10° W 08:27:47 51° SSW 08:48:33 10° SE visible
25 Jun - 10:43:37 10° W 10:57:01 28° SW 11:15:42 10° SSE visible
26 Jun - 02:19:54 10° SSW 02:24:03 22° SE 02:29:54 10° E daylight
26 Jun - 04:41:39 10° WSW 04:48:20 55° SSE 05:01:10 10° E visible
26 Jun - 07:05:26 10° W 07:15:01 57° S 07:33:36 10° ESE visible
26 Jun - 09:31:03 10° W 09:43:34 36° SSW 10:03:28 10° SSE visible
26 Jun - 12:04:26 10° WSW 12:12:51 14° SW 12:22:30 10° SSW daylight
27 Jun - 03:31:44 10° SW 03:37:14 42° SSE 03:46:46 10° E visible
27 Jun - 05:54:54 10° W 06:02:48 59° S 06:18:27 10° ESE visible
27 Jun - 08:19:29 10° W 08:30:26 44° SSW 08:49:50 10° SE visible
27 Jun - 10:47:51 10° WSW 10:59:26 22° SW 11:14:56 10° S visible
28 Jun - 02:22:16 10° SSW 02:26:36 27° SSE 02:32:57 10° E daylight
28 Jun - 04:44:38 10° WSW 04:51:09 56° S 05:03:36 10° E visible
28 Jun - 07:08:32 10° W 07:17:47 51° SSW 07:35:22 10° SE visible
28 Jun - 09:34:38 10° W 09:46:08 29° SSW 10:03:44 10° SSE visible
29 Jun - 01:13:57 10° S 01:16:16 13° SE 01:18:57 10° ESE daylight
29 Jun - 03:34:36 10° WSW 03:39:59 46° SSE 03:49:24 10° E visible
29 Jun - 05:57:59 10° W 06:05:38 55° S 06:20:35 10° ESE visible
29 Jun - 08:22:47 10° W 08:33:07 37° SSW 08:50:48 10° SSE visible
29 Jun - 10:53:14 10° WSW 11:01:57 15° SW 11:12:49 10° S visible
30 Jun - 02:24:51 10° SW 02:29:16 32° SSE 02:35:53 10° E daylight
30 Jun - 04:47:39 10° WSW 04:54:00 55° S 05:06:00 10° ESE visible
30 Jun - 07:11:43 10° W 07:20:33 44° SSW 07:36:53 10° SE visible
30 Jun - 09:38:39 10° WSW 09:48:46 23° SSW 10:03:20 10° S visible
01 Jul - 01:15:43 10° S 01:18:51 18° SSE 01:22:39 10° ESE daylight
01 Jul - 03:37:32 10° WSW 03:42:50 49° S 03:52:00 10° E visible
01 Jul - 06:01:05 10° W 06:08:29 49° S 06:22:34 10° ESE visible
01 Jul - 08:26:19 10° W 08:35:52 30° SSW 08:51:21 10° SSE visible
